Colorado City, AZ

6:54 AM MST on December 14, 2019 (GMT -0700)
Colorado City Municipal

Weather History for KAZC - November, 2019

Change the Weather History Date:

Thursday, November 14, 2019

  Actual Average (KSGU) Record (KSGU)
Temperature  
Mean Temperature 50 °F -  
Max Temperature 71 °F 64 °F 82 °F (1953)
Min Temperature 28 °F 36 °F 21 °F (1938)
Degree Days  
Heating Degree Days 16    
Moisture  
Dew Point 17 °F    
Average Humidity 34    
Maximum Humidity 55    
Minimum Humidity 14    
Precipitation  
Precipitation 0.00 in - - ()
Sea Level Pressure  
Sea Level Pressure 30.22 in    
Wind  
Wind Speed 3 mph ()    
Max Wind Speed 8 mph    
Max Gust Speed -    
Visibility 10.0 miles    
Events      
Averages and records for this station are not official NWS values.
T = Trace of Precipitation, MM = Missing Value Source: Averaged Metar Reports

Daily Weather History Graph

Daily Weather History Graph

Search for Another Location

Airport or City:

Astronomy

Nov. 14, 2019 Rise Set
Actual Time 7:09 AM MST 5:23 PM MST
Civil Twilight 6:41 AM MST 5:50 PM MST
Nautical Twilight 6:10 AM MST 6:22 PM MST
Astronomical Twilight 5:39 AM MST 6:52 PM MST
Moon 7:13 PM MST 9:07 AM MST
Length of Visible Light 11h 09m
Length of Day
10h 13m
Waning Gibbous, 95% of the Moon is Illuminated
Nov 14
Waning Gibbous
Nov 19
Last Quarter
Nov 26
New
Dec 3
First Quarter
Dec 11
Full

Hourly Weather History & Observations

Time (MST) Temp. Windchill Dew Point Humidity Pressure Visibility Wind Dir Wind Speed Gust Speed Precip Events Conditions
12:15 AM 32.0 °F 27.5 °F 14.0 °F 48% 30.18 in 10.0 mi SE 4.6 mph - N/A   Clear
12:35 AM 32.0 °F 28.7 °F 14.0 °F 48% 30.18 in 10.0 mi ESE 3.5 mph - N/A   Clear
12:55 AM 30.2 °F 26.7 °F 14.0 °F 51% 30.18 in 10.0 mi ESE 3.5 mph - N/A   Clear
1:15 AM 32.0 °F 26.4 °F 14.0 °F 48% 30.18 in 10.0 mi SE 5.8 mph - N/A   Clear
1:35 AM 30.2 °F 25.4 °F 12.2 °F 47% 30.19 in 10.0 mi SE 4.6 mph - N/A   Clear
1:55 AM 32.0 °F - 14.0 °F 48% 30.20 in 10.0 mi Calm Calm - N/A   Clear
2:15 AM 32.0 °F 27.5 °F 14.0 °F 48% 30.20 in 10.0 mi East 4.6 mph - N/A   Clear
2:35 AM 30.2 °F 26.7 °F 14.0 °F 51% 30.20 in 10.0 mi East 3.5 mph - N/A   Clear
2:55 AM 30.2 °F 25.4 °F 12.2 °F 47% 30.20 in 10.0 mi SE 4.6 mph - N/A   Clear
3:15 AM 30.2 °F 25.4 °F 12.2 °F 47% 30.19 in 10.0 mi SE 4.6 mph - N/A   Clear
3:35 AM 30.2 °F 26.7 °F 14.0 °F 51% 30.20 in 10.0 mi ESE 3.5 mph - N/A   Clear
3:55 AM 30.2 °F 25.4 °F 14.0 °F 51% 30.20 in 10.0 mi ESE 4.6 mph - N/A   Clear
4:15 AM 30.2 °F - 14.0 °F 51% 30.21 in 10.0 mi Calm Calm - N/A   Clear
4:35 AM 30.2 °F 25.4 °F 14.0 °F 51% 30.20 in 10.0 mi SE 4.6 mph - N/A   Clear
4:55 AM 28.4 °F 24.6 °F 14.0 °F 55% 30.21 in 10.0 mi SE 3.5 mph - N/A   Clear
5:15 AM 28.4 °F 23.3 °F 14.0 °F 55% 30.21 in 10.0 mi SSE 4.6 mph - N/A   Clear
5:35 AM 28.4 °F 24.6 °F 14.0 °F 55% 30.21 in 10.0 mi SE 3.5 mph - N/A   Clear
6:15 AM 30.2 °F - 14.0 °F 51% 30.22 in 10.0 mi Calm Calm - N/A   Clear
6:55 AM 30.2 °F 26.7 °F 14.0 °F 51% 30.23 in 10.0 mi ESE 3.5 mph - N/A   Clear
7:15 AM 30.2 °F - 14.0 °F 51% 30.23 in 10.0 mi Calm Calm - N/A   Clear
7:35 AM 32.0 °F 26.4 °F 15.8 °F 51% 30.24 in 10.0 mi SE 5.8 mph - N/A   Clear
7:55 AM 33.8 °F 30.8 °F 17.6 °F 52% 30.25 in 10.0 mi SE 3.5 mph - N/A   Clear
8:15 AM 39.2 °F - 17.6 °F 42% 30.25 in 10.0 mi Calm Calm - N/A   Clear
8:35 AM 44.6 °F - 17.6 °F 34% 30.26 in 10.0 mi Calm Calm - N/A   Clear
8:55 AM 46.4 °F - 17.6 °F 32% 30.26 in 10.0 mi Calm Calm - N/A   Clear
9:15 AM 50.0 °F - 17.6 °F 28% 30.26 in 10.0 mi Calm Calm - N/A   Clear
9:35 AM 53.6 °F - 19.4 °F 26% 30.26 in 10.0 mi SE 3.5 mph - N/A   Clear
9:55 AM 55.4 °F - 19.4 °F 25% 30.26 in 10.0 mi Calm Calm - N/A   Clear
10:35 AM 62.6 °F - 19.4 °F 19% 30.26 in 10.0 mi Calm Calm - N/A   Clear
11:15 AM 66.2 °F - 17.6 °F 15% 30.26 in 10.0 mi SE 3.5 mph - N/A   Clear
11:35 AM 68.0 °F - 19.4 °F 16% 30.26 in 10.0 mi ESE 5.8 mph - N/A   Clear
11:55 AM 66.2 °F - 17.6 °F 15% 30.25 in 10.0 mi SE 8.1 mph - N/A   Clear
12:15 PM 66.2 °F - 19.4 °F 17% 30.24 in 10.0 mi SE 3.5 mph - N/A   Clear
12:35 PM 68.0 °F - 19.4 °F 16% 30.24 in 10.0 mi SE 3.5 mph - N/A   Clear
12:55 PM 69.8 °F - 19.4 °F 15% 30.23 in 10.0 mi SE 3.5 mph - N/A   Clear
1:15 PM 69.8 °F - 19.4 °F 15% 30.23 in 10.0 mi South 4.6 mph - N/A   Clear
1:35 PM 69.8 °F - 19.4 °F 15% 30.22 in 10.0 mi SE 3.5 mph - N/A   Clear
1:55 PM 69.8 °F - 19.4 °F 15% 30.21 in 10.0 mi SE 4.6 mph - N/A   Clear
2:15 PM 71.6 °F - 19.4 °F 14% 30.20 in 10.0 mi SSE 6.9 mph - N/A   Clear
2:35 PM 69.8 °F - 19.4 °F 15% 30.20 in 10.0 mi Calm Calm - N/A   Clear
2:55 PM 71.6 °F - 19.4 °F 14% 30.20 in 10.0 mi SE 5.8 mph - N/A   Clear
3:15 PM 71.6 °F - 19.4 °F 14% 30.20 in 10.0 mi SE 6.9 mph - N/A   Clear
3:35 PM 69.8 °F - 19.4 °F 15% 30.19 in 10.0 mi ESE 4.6 mph - N/A   Clear
3:55 PM 69.8 °F - 19.4 °F 15% 30.19 in 10.0 mi SE 5.8 mph - N/A   Clear
4:15 PM 69.8 °F - 19.4 °F 15% 30.19 in 10.0 mi SE 6.9 mph - N/A   Clear
4:35 PM 68.0 °F - 19.4 °F 16% 30.19 in 10.0 mi SSE 4.6 mph - N/A   Clear
4:55 PM 66.2 °F - 17.6 °F 15% 30.19 in 10.0 mi SE 3.5 mph - N/A   Clear
5:15 PM 62.6 °F - 19.4 °F 19% 30.20 in 10.0 mi SE 4.6 mph - N/A   Clear
5:35 PM 60.8 °F - 17.6 °F 19% 30.20 in 10.0 mi SE 5.8 mph - N/A   Clear
5:55 PM 55.4 °F - 19.4 °F 25% 30.20 in 10.0 mi Calm Calm - N/A   Clear
6:15 PM 53.6 °F - 17.6 °F 24% 30.21 in 10.0 mi Calm Calm - N/A   Clear
6:35 PM 53.6 °F - 17.6 °F 24% 30.22 in 10.0 mi Calm Calm - N/A   Clear
6:55 PM 51.8 °F - 17.6 °F 26% 30.22 in 10.0 mi SSW 4.6 mph - N/A   Clear
7:15 PM 48.2 °F - 15.8 °F 27% 30.23 in 10.0 mi Calm Calm - N/A   Clear
7:35 PM 42.8 °F 39.3 °F 17.6 °F 36% 30.23 in 10.0 mi ENE 5.8 mph - N/A   Clear
7:55 PM 44.6 °F 43.1 °F 17.6 °F 34% 30.24 in 10.0 mi ENE 3.5 mph - N/A   Clear
8:15 PM 44.6 °F - 17.6 °F 34% 30.25 in 10.0 mi Calm Calm - N/A   Clear
8:35 PM 41.0 °F - 17.6 °F 39% 30.25 in 10.0 mi Calm Calm - N/A   Clear
8:55 PM 41.0 °F - 17.6 °F 39% 30.25 in 10.0 mi Calm Calm - N/A   Clear
9:15 PM 37.4 °F - 14.0 °F 38% 30.26 in 10.0 mi Calm Calm - N/A   Clear
9:35 PM 41.0 °F - 14.0 °F 33% 30.26 in 10.0 mi Calm Calm - N/A   Clear
9:55 PM 39.2 °F 35.9 °F 14.0 °F 36% 30.26 in 10.0 mi SSE 4.6 mph - N/A   Clear
10:15 PM 39.2 °F 37.0 °F 14.0 °F 36% 30.26 in 10.0 mi SE 3.5 mph - N/A   Clear
10:35 PM 37.4 °F 33.8 °F 15.8 °F 41% 30.27 in 10.0 mi SSE 4.6 mph - N/A   Clear
10:55 PM 37.4 °F 32.8 °F 17.6 °F 45% 30.26 in 10.0 mi ESE 5.8 mph - N/A   Clear
11:15 PM 39.2 °F 33.6 °F 17.6 °F 42% 30.26 in 10.0 mi SE 8.1 mph - N/A   Clear
11:35 PM 41.0 °F 35.8 °F 17.6 °F 39% 30.26 in 10.0 mi SE 8.1 mph - N/A   Clear
11:55 PM 39.2 °F 34.2 °F 17.6 °F 42% 30.26 in 10.0 mi SSE 6.9 mph - N/A   Clear